Location: Star Hoppers Observatory
(42.7905°N, 83.6127°W)
Time: 07:41:45
(UTC-04:00)

Amateur Radio Satellites - All Passes

Search period start: 18 September 2014 07:11
Search period end: 19 September 2014 07:11
Location: Star Hoppers Observatory, 42.7905°N, 83.6127°W

Satellite Date Start Highest point End Downlink Frequencies (MHz)
Time Altitude Azimuth
SO-50 18 Sep 07:18:52 07:22:55 27° 44° (NE) 07:27:01 436.795 FM
JAS-2 18 Sep 07:33:06 07:39:02 80° 104° (ESE) 07:45:45 435.800 - 435.900 CW/SSB, 435.910 FM
KITSAT 1 18 Sep 07:47:10 07:52:20 19° 259° (WSW) 07:57:31 435.175 FM
ISS 18 Sep 08:06:48 08:09:15 19° 7° (N) 08:11:42 145.800 FM
SO-67 18 Sep 08:09:49 08:12:48 26° 96° (E) 08:15:45 435.3500 MHz FM
AO-7 18 Sep 08:24:14 08:29:50 21° 311° (NW) 08:35:25 29.400 - 29.500 MHz
Hamsat 18 Sep 08:40:29 08:43:33 20° 294° (WNW) 08:46:36 145.90 MHz
STRAND 1 18 Sep 08:44:29 08:48:13 20° 267° (W) 08:51:58 ?
RS-15 18 Sep 08:53:06 09:02:04 28° 338° (NNW) 09:11:07 29.354 - 29.394 USB, Beacon 29.352 USB
SO-50 18 Sep 08:59:05 09:03:42 48° 242° (WSW) 09:08:22 436.795 FM
UOSAT-12 18 Sep 09:06:02 09:10:01 26° 43° (NE) 09:13:57 437.025 FM, 437.400 FM
HO-68 18 Sep 09:09:45 09:13:45 15° 88° (E) 09:17:44 435.675 MHz FM
MaSat-1 18 Sep 09:10:44 09:15:24 40° 109° (ESE) 09:20:03 437.345 MHz
JAS-2 18 Sep 09:19:49 09:23:36 18° 299° (WNW) 09:27:39 435.800 - 435.900 CW/SSB, 435.910 FM
SO-67 18 Sep 09:43:15 09:45:39 18° 292° (WNW) 09:48:02 435.3500 MHz FM
ISS 18 Sep 09:43:21 09:46:35 45° 27° (NNE) 09:49:47 145.800 FM
Oscar 11 18 Sep 10:08:59 10:10:38 12° 89° (E) 10:12:17 145.825 FM, Beacon 2401.500 USB
UKube-1 18 Sep 10:22:37 10:26:05 23° 95° (E) 10:29:32 145.840 MHz, 145.915 MHz
UOSAT-12 18 Sep 10:45:51 10:50:23 47° 242° (WSW) 10:54:51 437.025 FM, 437.400 FM
MaSat-1 18 Sep 10:47:54 10:52:17 29° 306° (NW) 10:56:36 437.345 MHz
HO-68 18 Sep 10:55:11 11:02:24 87° 107° (ESE) 11:09:36 435.675 MHz FM
RS-15 18 Sep 11:10:50 11:19:23 25° 14° (NNE) 11:28:04 29.354 - 29.394 USB, Beacon 29.352 USB
ISS 18 Sep 11:20:21 11:23:09 25° 224° (SW) 11:25:56 145.800 FM
FUNcube-1 18 Sep 11:28:37 11:32:57 37° 97° (E) 11:37:12 145.950 - 145.970 MHz USB
Oscar 11 18 Sep 11:42:56 11:47:15 64° 286° (WNW) 11:51:31 145.825 FM, Beacon 2401.500 USB
UKube-1 18 Sep 11:58:24 12:02:20 34° 291° (WNW) 12:06:15 145.840 MHz, 145.915 MHz
Sapphire 18 Sep 12:11:32 12:14:26 15° 103° (ESE) 12:17:20 437.095 MHz 1200 baud AX-25 AFSK
PCSat 18 Sep 12:36:49 12:41:18 27° 109° (ESE) 12:45:49 145.825 MHz
HO-68 18 Sep 12:44:17 12:49:14 21° 306° (NW) 12:54:11 435.675 MHz FM
Oscar 16 18 Sep 12:50:13 12:53:16 16° 60° (ENE) 12:56:19 437.025 USB, Beacon 2401.1428
FUNcube-1 18 Sep 13:05:26 13:09:06 24° 294° (WNW) 13:12:45 145.950 - 145.970 MHz USB
AO-Echo 18 Sep 13:16:34 13:17:54 11° 59° (ENE) 13:19:13 ?
RS-15 18 Sep 13:24:15 13:35:02 54° 45° (NE) 13:46:11 29.354 - 29.394 USB, Beacon 29.352 USB
ITAMSAT 1 18 Sep 13:30:41 13:33:43 16° 60° (ENE) 13:36:45 435.822 SSB
Uribyol 2 18 Sep 13:34:46 13:38:12 18° 61° (ENE) 13:41:40 436.500 FM
Oscar 19 18 Sep 13:48:28 13:53:26 49° 70° (ENE) 13:58:27 437.125 CW, 437.150 USB
JAS-1B 18 Sep 13:49:03 13:56:43 39° 66° (ENE) 14:03:17 435.800 - 435.900 CW/SSB
Sapphire 18 Sep 13:51:44 13:57:09 79° 301° (WNW) 14:02:36 437.095 MHz 1200 baud AX-25 AFSK
AO-27 18 Sep 14:03:32 14:08:01 31° 66° (ENE) 14:12:31 436.795 MHz FM
PCSat 18 Sep 14:19:18 14:24:29 45° 307° (NW) 14:29:42 145.825 MHz
Oscar 16 18 Sep 14:26:49 14:32:00 74° 257° (WSW) 14:37:13 437.025 USB, Beacon 2401.1428
Gurwin Techsat 1B 18 Sep 14:48:06 14:52:55 37° 68° (ENE) 14:57:46 435.225 FM
Oscar 10/S400 18 Sep 14:48:27 15:00:28 16° 146° (SSE) 15:11:07 145.825 - 145.975 CW/USB, Beacon 145.810 USB
AO-Echo 18 Sep 14:51:12 14:55:58 89° 257° (WSW) 15:00:42 ?
ITAMSAT 1 18 Sep 15:07:27 15:12:36 73° 257° (WSW) 15:17:48 435.822 SSB
Uribyol 2 18 Sep 15:12:04 15:17:10 63° 258° (WSW) 15:22:20 436.500 FM
TMSAT-1 18 Sep 15:25:35 15:30:45 59° 72° (ENE) 15:35:58 436.925 FM
Oscar 19 18 Sep 15:29:07 15:33:02 21° 267° (W) 15:36:59 437.125 CW, 437.150 USB
RS-15 18 Sep 15:36:53 15:47:24 51° 248° (WSW) 15:58:22 29.354 - 29.394 USB, Beacon 29.352 USB
Sapphire 18 Sep 15:38:12 15:41:29 16° 322° (NW) 15:44:47 437.095 MHz 1200 baud AX-25 AFSK
AO-7 18 Sep 15:38:18 15:45:32 35° 57° (ENE) 15:52:45 29.400 - 29.500 MHz
JAS-1B 18 Sep 15:38:48 15:47:10 48° 260° (W) 15:54:18 435.800 - 435.900 CW/SSB
AO-27 18 Sep 15:42:46 15:47:26 34° 263° (W) 15:52:09 436.795 MHz FM
Uosat F 18 Sep 16:01:01 16:04:56 24° 64° (ENE) 16:08:51 435.120 FM
PCSat 18 Sep 16:08:12 16:09:21 11° 329° (NNW) 16:10:29 145.825 MHz
Gurwin Techsat 1B 18 Sep 16:28:21 16:32:55 29° 265° (W) 16:37:32 435.225 FM
OPAL 18 Sep 16:59:54 17:00:11 10° 89° (E) 17:00:29 ?
TMSAT-1 18 Sep 17:07:30 17:11:04 18° 269° (W) 17:14:39 436.925 FM
MaSat-1 18 Sep 17:29:03 17:29:39 10° 41° (NE) 17:30:14 437.345 MHz
AO-7 18 Sep 17:29:45 17:37:55 59° 257° (WSW) 17:46:06 29.400 - 29.500 MHz
Uosat F 18 Sep 17:38:42 17:43:27 43° 261° (W) 17:48:14 435.120 FM
JAS-2 18 Sep 17:47:46 17:52:25 33° 67° (ENE) 17:57:00 435.800 - 435.900 CW/SSB, 435.910 FM
Saudisat 1A 18 Sep 17:56:06 18:00:05 35° 116° (ESE) 18:04:06 436.775 MHz
Hamsat 18 Sep 17:57:54 18:01:46 32° 70° (ENE) 18:05:38 145.90 MHz
OPAL 18 Sep 18:34:36 18:39:49 85° 106° (ESE) 18:44:56 ?
SO-67 18 Sep 18:45:22 18:46:34 11° 65° (ENE) 18:47:45 435.3500 MHz FM
MaSat-1 18 Sep 19:03:18 19:07:15 88° 251° (WSW) 19:10:35 437.345 MHz
STRAND 1 18 Sep 19:14:55 19:17:57 16° 91° (E) 19:20:59 ?
JAS-2 18 Sep 19:32:59 19:37:35 30° 264° (W) 19:42:06 435.800 - 435.900 CW/SSB, 435.910 FM
Hamsat 18 Sep 19:34:11 19:37:44 24° 266° (W) 19:41:18 145.90 MHz
Saudisat 1A 18 Sep 19:35:50 19:39:41 29° 314° (NW) 19:43:35 436.775 MHz
HO-68 18 Sep 19:40:56 19:44:40 15° 50° (NE) 19:48:25 435.675 MHz FM
OPAL 18 Sep 20:15:17 20:17:58 14° 304° (NW) 20:20:38 ?
SO-67 18 Sep 20:15:52 20:19:11 45° 261° (W) 20:22:32 435.3500 MHz FM
KITSAT 1 18 Sep 20:18:33 20:26:25 59° 114° (ESE) 20:34:19 435.175 FM
STRAND 1 18 Sep 20:52:30 20:57:36 65° 287° (WNW) 21:02:41 ?
Sapphire 18 Sep 20:56:31 21:00:20 19° 41° (NE) 21:04:08 437.095 MHz 1200 baud AX-25 AFSK
Oscar 11 18 Sep 21:05:34 21:07:10 12° 61° (ENE) 21:08:45 145.825 FM, Beacon 2401.500 USB
UKube-1 18 Sep 21:19:09 21:22:33 23° 66° (ENE) 21:25:58 145.840 MHz, 145.915 MHz
PCSat 18 Sep 21:23:12 21:27:56 29° 48° (NE) 21:32:38 145.825 MHz
HO-68 18 Sep 21:24:04 21:31:08 71° 70° (ENE) 21:38:16 435.675 MHz FM
KITSAT 1 18 Sep 22:14:47 22:22:12 38° 316° (NW) 22:29:39 435.175 FM
FUNcube-1 18 Sep 22:25:53 22:29:49 33° 69° (ENE) 22:33:51 145.950 - 145.970 MHz USB
Oscar 11 18 Sep 22:38:22 22:42:44 75° 258° (WSW) 22:47:07 145.825 FM, Beacon 2401.500 USB
Sapphire 18 Sep 22:39:00 22:44:28 84° 241° (WSW) 22:49:53 437.095 MHz 1200 baud AX-25 AFSK
UKube-1 18 Sep 22:54:38 22:58:34 34° 262° (W) 23:02:32 145.840 MHz, 145.915 MHz
PCSat 18 Sep 23:06:22 23:11:33 47° 247° (WSW) 23:16:41 145.825 MHz
HO-68 18 Sep 23:14:07 23:19:26 22° 268° (W) 23:24:48 435.675 MHz FM
SO-50 18 Sep 23:14:41 23:18:57 46° 118° (ESE) 23:23:20 436.795 FM
FUNcube-1 19 Sep 00:02:40 00:06:15 24° 266° (W) 00:09:55 145.950 - 145.970 MHz USB
KITSAT 1 19 Sep 00:15:58 00:20:21 15° 343° (NNW) 00:24:45 435.175 FM
Sapphire 19 Sep 00:25:28 00:26:59 11° 259° (WSW) 00:28:31 437.095 MHz 1200 baud AX-25 AFSK
SO-50 19 Sep 00:55:59 00:59:43 25° 317° (NW) 01:03:33 436.795 FM
UOSAT-12 19 Sep 00:57:30 01:01:51 43° 117° (ESE) 01:06:19 437.025 FM, 437.400 FM
Oscar 19 19 Sep 02:00:34 02:03:42 16° 90° (E) 02:06:48 437.125 CW, 437.150 USB
KITSAT 1 19 Sep 02:15:42 02:19:54 15° 15° (NNE) 02:24:06 435.175 FM
Saudisat 1A 19 Sep 02:21:45 02:25:54 37° 49° (NE) 02:30:00 436.775 MHz
AO-40 19 Sep 02:23:10 03:04:43 12° 237° (WSW) 03:57:17 Beacon 2401.320
Oscar 16 19 Sep 02:37:59 02:42:47 37° 97° (E) 02:47:32 437.025 USB, Beacon 2401.1428
UOSAT-12 19 Sep 02:38:10 02:42:10 27° 316° (NW) 02:46:13 437.025 FM, 437.400 FM
AO-Echo 19 Sep 02:57:40 03:01:46 27° 95° (E) 03:05:56 ?
Gurwin Techsat 1B 19 Sep 03:05:01 03:07:32 13° 89° (E) 03:10:02 435.225 FM
ITAMSAT 1 19 Sep 03:19:41 03:24:32 38° 98° (E) 03:29:21 435.822 SSB
JAS-1B 19 Sep 03:23:32 03:29:04 45° 99° (E) 03:34:30 435.800 - 435.900 CW/SSB
Uribyol 2 19 Sep 03:24:01 03:29:00 44° 99° (E) 03:33:58 436.500 FM
Oscar 19 19 Sep 03:38:22 03:43:29 64° 287° (WNW) 03:48:34 437.125 CW, 437.150 USB
TMSAT-1 19 Sep 03:41:20 03:45:24 22° 93° (E) 03:49:27 436.925 FM
RS-15 19 Sep 03:51:42 04:00:06 26° 103° (ESE) 04:08:23 29.354 - 29.394 USB, Beacon 29.352 USB
AO-27 19 Sep 03:54:16 03:59:30 80° 104° (ESE) 04:04:43 436.795 MHz FM
Saudisat 1A 19 Sep 04:01:39 04:05:19 26° 246° (WSW) 04:08:57 436.775 MHz
ISS 19 Sep 04:02:28 04:05:46 67° 144° (SE) 04:09:05 145.800 FM
KITSAT 1 19 Sep 04:10:52 04:18:11 36° 43° (NE) 04:25:27 435.175 FM
OPAL 19 Sep 04:12:58 04:16:59 23° 61° (ENE) 04:21:01 ?
Oscar 16 19 Sep 04:17:36 04:22:00 29° 294° (WNW) 04:26:22 437.025 USB, Beacon 2401.1428
AO-Echo 19 Sep 04:36:13 04:40:34 35° 291° (WNW) 04:45:02 ?
Gurwin Techsat 1B 19 Sep 04:42:46 04:48:06 79° 286° (WNW) 04:53:24 435.225 FM
ITAMSAT 1 19 Sep 04:59:27 05:03:53 29° 295° (WNW) 05:08:18 435.822 SSB
Uribyol 2 19 Sep 05:04:01 05:08:13 25° 296° (WNW) 05:12:25 436.500 FM
JAS-1B 19 Sep 05:14:53 05:19:30 25° 299° (WNW) 05:24:00 435.800 - 435.900 CW/SSB
TMSAT-1 19 Sep 05:20:28 05:25:35 49° 290° (WNW) 05:30:39 436.925 FM
AO-7 19 Sep 05:30:15 05:38:11 47° 100° (E) 05:46:04 29.400 - 29.500 MHz
AO-27 19 Sep 05:35:31 05:38:21 15° 301° (WNW) 05:41:11 436.795 MHz FM
ISS 19 Sep 05:39:51 05:42:43 26° 342° (NNW) 05:45:36 145.800 FM
Uosat F 19 Sep 05:45:15 05:50:11 53° 101° (E) 05:55:05 435.120 FM
OPAL 19 Sep 05:50:30 05:55:31 50° 258° (WSW) 06:00:36 ?
RS-15 19 Sep 06:00:02 06:11:07 84° 304° (NW) 06:22:07 29.354 - 29.394 USB, Beacon 29.352 USB
KITSAT 1 19 Sep 06:06:08 06:14:05 64° 244° (WSW) 06:22:00 435.175 FM
SO-50 19 Sep 06:06:30 06:08:21 12° 32° (NNE) 06:10:12 436.795 FM
Gurwin Techsat 1B 19 Sep 06:25:27 06:27:11 12° 304° (WNW) 06:28:55 435.225 FM
STRAND 1 19 Sep 06:31:22 06:35:29 26° 65° (ENE) 06:39:38 ?
JAS-2 19 Sep 06:38:34 06:43:54 31° 96° (E) 06:49:45 435.800 - 435.900 CW/SSB, 435.910 FM
